Вернуться в каталог

STARLINK-37452

АктивенСвязьSSO
NORAD 68840·PAYLOAD·🇺🇸 United States

Запущен Apr 26, 2026 с Vandenberg Space Force Base

Loading…

Ближайшие Пролёты (ближайшие 24 часа)

TLE

СвежийSource: CelesTrak SupGP

Эпоха: Sep 15, 2026, 04:05 UTC

1 68840C 26094B   26258.17062500 -.00058609  00000+0 -18196-2 0  2585
2 68840  97.2829 271.3103 0001633  90.9421  27.0214 15.33463778    14

Отслеживайте STARLINK-37452 в реальном времени с AllMySat

Download on the App Store